Home > Time Zones > World Clock > Weather > Iran > Ahvaz > Past weeks

Flag for Iran Weather past 2 weeks in Ahvaz, Iran

Now
109 °F

Duststorm.


Feels Like: 108 °F
Forecast: 85 / 116 °F
Wind: 12 mph from West

Location: Ahwaz

Current Time: Jun 30, 2015 at 3:06:54 PM

Latest Report: Jun 30, 2015 at 2:30 PM


Visibility: 3 mi

Pressure: 29.59 "Hg

Humidity: 16%

Dew point: 54 °F

Location of AhvazLocation

Historic Weather in Ahvaz — Graph

°F

Ahvaz temperature yesterday

Maximum temperature yesterday: 115 °F (at 3:30 PM)
Minimum temperature yesterday: 84 °F (at 6:30 AM)
Average temperature yesterday: 102 °F

Past Weeks' High & Low Weather Summary

 TemperatureHumidityPressure
High117 °F (Jun 20, 4:30 PM)45% (Jun 26, 7:30 AM)29.62 "Hg (Jun 26, 7:30 AM)
Low79 °F (Jun 16, 6:30 AM)8% (Jun 15, 4:30 PM)29.39 "Hg (Jun 20, 3:55 PM)
Average100 °F18%29.47 "Hg
* Reported Jun 15 1:30 PM — Jun 30 2:00 PM, Ahvaz, Weather by CustomWeather, © 2015

Note: Actual official high and low records may vary slightly from our data, if they occured in-between our weather recording intervals... More about our weather records

Advertising

Ahvaz weather history for previous 24 hours

 ConditionsComfort  
Time TempWeatherWind HumidityBarometerVisibility
2:00 PM
Tue, Jun 30
109 °FDuststorm.12 mph17%29.59 "Hg3 mi
1:30 PM109 °FDuststorm.14 mph17%29.59 "Hg3 mi
1:00 PM108 °FDuststorm.12 mph16%29.59 "Hg3 mi
12:30 PM106 °FClear.14 mph15%29.59 "Hg4 mi
12:00 PM106 °FClear.14 mph13%29.62 "Hg4 mi
11:30 AM104 °FClear.16 mph14%29.62 "Hg4 mi
11:00 AM102 °FClear.12 mph18%29.62 "Hg4 mi
10:30 AM99 °FClear.12 mph18%29.62 "Hg4 mi
10:00 AM97 °FClear.12 mph19%29.62 "Hg4 mi
9:30 AM95 °FClear.9 mph22%29.59 "Hg4 mi
9:00 AM93 °FClear.12 mph21%29.59 "Hg4 mi
8:30 AM91 °FClear.12 mph23%29.59 "Hg4 mi
8:00 AM90 °FClear.9 mph26%29.59 "Hg4 mi
7:30 AM90 °FHaze.12 mph24%29.59 "Hg3 mi
6:30 AM91 °FClear.12 mph21%29.56 "Hg4 mi
5:30 AM91 °FClear.9 mph18%29.56 "Hg4 mi
4:30 AM93 °FClear.12 mph17%29.56 "Hg4 mi
3:30 AM93 °FClear.14 mph16%29.56 "Hg10 mi
2:30 AM97 °FClear.12 mph16%29.56 "Hg5 mi
1:30 AM97 °FClear.12 mph18%29.56 "Hg5 mi
1:00 AM97 °FClear.14 mph19%29.56 "Hg10 mi
12:30 AM99 °FClear.12 mph19%29.56 "Hg10 mi
12:00 AM99 °FClear.7 mph17%29.56 "Hg10 mi
11:30 PM
Mon, Jun 29
99 °FClear.9 mph18%29.56 "Hg10 mi
11:00 PM100 °FClear.9 mph17%29.56 "Hg10 mi
10:30 PM102 °FClear.9 mph15%29.56 "Hg10 mi
10:00 PM104 °FClear.14 mph16%29.53 "Hg10 mi
9:30 PM104 °FSunny.16 mph16%29.53 "Hg10 mi
9:00 PM106 °FSunny.12 mph17%29.50 "Hg10 mi
8:30 PM108 °FSunny.12 mph16%29.50 "Hg10 mi
7:30 PM109 °FSunny.16 mph12%29.50 "Hg10 mi
7:00 PM111 °FSunny.9 mph13%29.50 "Hg10 mi
6:30 PM111 °FSunny.14 mph13%29.50 "Hg10 mi
6:00 PM113 °FSunny.9 mph12%29.50 "Hg10 mi
5:30 PM113 °FSunny.7 mph12%29.50 "Hg10 mi
5:00 PM115 °FSunny.14 mph12%29.50 "Hg10 mi
4:30 PM115 °FSunny.14 mph12%29.50 "Hg10 mi
4:00 PM115 °FSunny.5 mph12%29.50 "Hg10 mi
3:30 PM115 °FSunny.9 mph12%29.50 "Hg10 mi
3:00 PM113 °FSunny.7 mph11%29.53 "Hg10 mi
Weather by CustomWeather, © 2015

See weather overviewHow to use our weather pages